When you browse on this site, cookies collect data to enhance your experience and personalize the content and advertising you see.
Visit our Privacy Policy to learn more. By continuing to use the site, you agree to this use of cookies and data.
  • In Spain
  • List of Countries
  • For 7 days
  • Water Temperature
  • Weather Map
  • Weather Widgets
  • user-avatar
    Login

    Hourly Weather Canillo

    Today, 18 August, Sunday

    Time Temperature Precipitation Wind Pressure Humidity
    00:00 +15°C° 0 mm 2 mps 619 mmHg 83%
    01:00 +15°C° 0 mm 2 mps 619 mmHg 82%
    02:00 +15°C° 0 mm 2 mps 618 mmHg 80%
    03:00 +15°C° 0 mm 2 mps 618 mmHg 78%
    04:00 +15°C° 0 mm 2 mps 618 mmHg 75%
    05:00 +15°C° 0 mm 2 mps 618 mmHg 71%
    06:00 +16°C° 0 mm 2 mps 618 mmHg 68%
    07:00 +18°C° 0 mm 2 mps 620 mmHg 57%
    08:00 +21°C° 0 mm 2 mps 621 mmHg 46%
    09:00 +25°C° 0 mm 2 mps 622 mmHg 35%
    10:00 +25°C° 0 mm 3 mps 623 mmHg 33%
    11:00 +26°C° 0 mm 3 mps 623 mmHg 32%
    12:00 +27°C° 0 mm 3 mps 623 mmHg 30%
    13:00 +27°C° 0 mm 4 mps 623 mmHg 31%
    14:00 +26°C° 0 mm 4 mps 623 mmHg 32%
    15:00 +26°C° 0 mm 4 mps 622 mmHg 33%
    16:00 +24°C° 0.4 mm 3 mps 622 mmHg 45%
    17:00 +21°C° 0.4 mm 2 mps 621 mmHg 57%
    18:00 +19°C° 0.4 mm 2 mps 620 mmHg 70%
    19:00 +17°C° 0.6 mm 2 mps 620 mmHg 77%
    20:00 +16°C° 0.6 mm 2 mps 620 mmHg 84%
    21:00 +14°C° 0.6 mm 2 mps 620 mmHg 92%
    22:00 +14°C° 0.2 mm 1 mps 620 mmHg 92%
    23:00 +14°C° 0.2 mm 1 mps 620 mmHg 93%

    Tomorrow, 19 August, Monday

    Time Temperature Precipitation Wind Pressure Humidity
    00:00 +13°C° 0.2 mm 1 mps 620 mmHg 94%
    01:00 +13°C° 0 mm 1 mps 620 mmHg 94%
    02:00 +13°C° 0 mm 1 mps 620 mmHg 93%
    03:00 +13°C° 0 mm 1 mps 620 mmHg 93%
    04:00 +12°C° 0 mm 0 mps 620 mmHg 92%
    05:00 +12°C° 0 mm 0 mps 620 mmHg 91%
    06:00 +12°C° 0 mm 0 mps 620 mmHg 90%
    07:00 +14°C° 0 mm 1 mps 621 mmHg 84%
    08:00 +16°C° 0 mm 1 mps 622 mmHg 77%
    09:00 +19°C° 0 mm 1 mps 623 mmHg 70%
    10:00 +19°C° 0.3 mm 2 mps 623 mmHg 66%
    11:00 +20°C° 0.3 mm 2 mps 624 mmHg 63%
    12:00 +21°C° 0.3 mm 2 mps 624 mmHg 59%
    13:00 +20°C° 0.7 mm 2 mps 623 mmHg 63%
    14:00 +19°C° 0.7 mm 2 mps 623 mmHg 68%
    15:00 +18°C° 0.7 mm 2 mps 622 mmHg 73%
    16:00 +17°C° 0.5 mm 2 mps 622 mmHg 77%
    17:00 +18°C° 0.5 mm 1 mps 622 mmHg 81%
    18:00 +16°C° 0.5 mm 1 mps 621 mmHg 85%
    19:00 +15°C° 0.6 mm 1 mps 621 mmHg 87%
    20:00 +14°C° 0.6 mm 1 mps 621 mmHg 89%
    21:00 +14°C° 0.6 mm 1 mps 621 mmHg 90%
    22:00 +12°C° 0.1 mm 0 mps 621 mmHg 91%
    23:00 +12°C° 0.1 mm 0 mps 621 mmHg 91%

    Day after tomorrow, 20 August, Tuesday

    Time Temperature Precipitation Wind Pressure Humidity
    00:00 +12°C° 0.1 mm 0 mps 621 mmHg 92%
    01:00 +12°C° 0.1 mm 0 mps 621 mmHg 93%
    02:00 +11°C° 0.1 mm 0 mps 621 mmHg 93%
    03:00 +11°C° 0.1 mm 0 mps 621 mmHg 94%
    04:00 +12°C° 0.8 mm 1 mps 621 mmHg 95%
    05:00 +12°C° 0.8 mm 1 mps 621 mmHg 96%
    06:00 +12°C° 0.8 mm 1 mps 621 mmHg 96%
    07:00 +12°C° 2.3 mm 1 mps 621 mmHg 95%
    08:00 +12°C° 2.3 mm 1 mps 622 mmHg 95%
    09:00 +12°C° 2.3 mm 1 mps 622 mmHg 94%
    10:00 +11°C° 5.8 mm 1 mps 622 mmHg 94%
    11:00 +10°C° 5.8 mm 1 mps 622 mmHg 95%
    12:00 +9°C° 5.8 mm 2 mps 622 mmHg 96%
    13:00 +9°C° 2.5 mm 2 mps 622 mmHg 94%
    14:00 +9°C° 2.5 mm 2 mps 622 mmHg 92%
    15:00 +10°C° 2.5 mm 1 mps 622 mmHg 90%
    16:00 +10°C° 0.1 mm 1 mps 622 mmHg 88%
    17:00 +10°C° 0.1 mm 2 mps 622 mmHg 86%
    18:00 +12°C° 0.1 mm 2 mps 623 mmHg 84%
    19:00 +9°C° 0 mm 2 mps 622 mmHg 86%
    20:00 +8°C° 0 mm 2 mps 622 mmHg 88%
    21:00 +7°C° 0 mm 2 mps 622 mmHg 90%
    22:00 +7°C° 0 mm 2 mps 622 mmHg 89%
    23:00 +7°C° 0 mm 2 mps 622 mmHg 89%

    21 August, Wednesday

    Time Temperature Precipitation Wind Pressure Humidity
    00:00 +6°C° 0 mm 2 mps 621 mmHg 88%
    01:00 +6°C° 0 mm 2 mps 621 mmHg 87%
    02:00 +6°C° 0 mm 2 mps 621 mmHg 85%
    03:00 +7°C° 0 mm 1 mps 621 mmHg 84%
    04:00 +7°C° 0 mm 1 mps 621 mmHg 80%
    05:00 +8°C° 0 mm 1 mps 621 mmHg 75%
    06:00 +8°C° 0 mm 1 mps 621 mmHg 71%
    07:00 +11°C° 0 mm 1 mps 622 mmHg 61%
    08:00 +14°C° 0 mm 1 mps 624 mmHg 52%
    09:00 +18°C° 0 mm 1 mps 625 mmHg 42%
    10:00 +19°C° 0 mm 1 mps 625 mmHg 41%
    11:00 +20°C° 0 mm 1 mps 625 mmHg 39%
    12:00 +21°C° 0 mm 1 mps 625 mmHg 37%
    13:00 +20°C° 0 mm 2 mps 625 mmHg 40%
    14:00 +19°C° 0 mm 2 mps 624 mmHg 42%
    15:00 +19°C° 0 mm 2 mps 624 mmHg 44%
    16:00 +19°C° 0 mm 1 mps 624 mmHg 53%
    17:00 +16°C° 0 mm 1 mps 623 mmHg 63%
    18:00 +13°C° 0 mm 0 mps 622 mmHg 72%
    19:00 +13°C° 0 mm 1 mps 622 mmHg 76%
    20:00 +12°C° 0 mm 1 mps 622 mmHg 80%
    21:00 +11°C° 0 mm 1 mps 622 mmHg 85%
    22:00 +10°C° 0 mm 1 mps 622 mmHg 82%
    23:00 +10°C° 0 mm 1 mps 621 mmHg 79%

    22 August, Thursday

    Time Temperature Precipitation Wind Pressure Humidity
    00:00 +10°C° 0 mm 1 mps 621 mmHg 76%
    01:00 +10°C° 0 mm 1 mps 621 mmHg 72%
    02:00 +9°C° 0 mm 1 mps 621 mmHg 67%
    03:00 +9°C° 0 mm 1 mps 621 mmHg 63%
    04:00 +8°C° 0 mm 2 mps 621 mmHg 58%
    05:00 +8°C° 0 mm 2 mps 621 mmHg 54%
    06:00 +9°C° 0 mm 2 mps 621 mmHg 50%
    07:00 +13°C° 0 mm 1 mps 623 mmHg 43%
    08:00 +16°C° 0 mm 1 mps 624 mmHg 36%
    09:00 +20°C° 0 mm 1 mps 625 mmHg 30%
    10:00 +21°C° 0 mm 1 mps 625 mmHg 29%
    11:00 +22°C° 0 mm 1 mps 626 mmHg 27%
    12:00 +23°C° 0 mm 1 mps 626 mmHg 26%
    13:00 +23°C° 0 mm 1 mps 625 mmHg 28%
    14:00 +23°C° 0 mm 2 mps 625 mmHg 30%
    15:00 +21°C° 0 mm 2 mps 625 mmHg 33%
    16:00 +21°C° 0 mm 1 mps 624 mmHg 43%
    17:00 +19°C° 0 mm 1 mps 623 mmHg 54%
    18:00 +15°C° 0 mm 0 mps 622 mmHg 64%
    19:00 +15°C° 0 mm 1 mps 622 mmHg 67%
    20:00 +13°C° 0 mm 1 mps 622 mmHg 70%
    21:00 +12°C° 0 mm 1 mps 622 mmHg 73%
    22:00 +12°C° 0 mm 1 mps 622 mmHg 73%
    23:00 +12°C° 0 mm 1 mps 621 mmHg 73%

    23 August, Friday

    Time Temperature Precipitation Wind Pressure Humidity
    00:00 +12°C° 0 mm 1 mps 621 mmHg 73%
    01:00 +11°C° 0 mm 1 mps 621 mmHg 75%
    02:00 +11°C° 0 mm 1 mps 621 mmHg 76%
    03:00 +11°C° 0 mm 1 mps 620 mmHg 78%
    04:00 +11°C° 0 mm 1 mps 621 mmHg 77%
    05:00 +12°C° 0 mm 1 mps 621 mmHg 77%
    06:00 +12°C° 0 mm 1 mps 621 mmHg 77%
    07:00 +15°C° 0 mm 1 mps 622 mmHg 67%
    08:00 +19°C° 0 mm 1 mps 623 mmHg 56%
    09:00 +22°C° 0 mm 1 mps 624 mmHg 46%
    10:00 +23°C° 0 mm 1 mps 624 mmHg 42%
    11:00 +24°C° 0 mm 1 mps 625 mmHg 38%
    12:00 +25°C° 0 mm 2 mps 625 mmHg 34%
    13:00 +24°C° 0 mm 2 mps 624 mmHg 36%
    14:00 +24°C° 0 mm 2 mps 624 mmHg 37%
    15:00 +24°C° 0 mm 2 mps 623 mmHg 38%
    16:00 +22°C° 0 mm 1 mps 623 mmHg 46%
    17:00 +20°C° 0 mm 1 mps 622 mmHg 53%
    18:00 +17°C° 0 mm 0 mps 621 mmHg 61%
    19:00 +16°C° 0 mm 1 mps 621 mmHg 64%
    20:00 +15°C° 0 mm 1 mps 621 mmHg 67%
    21:00 +14°C° 0 mm 1 mps 620 mmHg 69%
    22:00 +13°C° 0 mm 1 mps 620 mmHg 70%
    23:00 +13°C° 0 mm 1 mps 620 mmHg 70%
    Show more